Location: Bergfeld
(52.0500°N, 11.7833°E)
Time: 15:29:53
(UTC+00:00)

NOAA 6 - Pass Details

Date: 17 February 2020
Orbit: 771 x 788 km, 98.7° (Epoch: 08 April)

Event Time Altitude Azimuth Distance (km) Brightness Sun altitude
Rises 05:33:19 0° 13° (NNE) 3,295 7.3 -8.6°
Reaches altitude 10° 05:35:40 10° 10° (N) 2,360 6.6 -8.2°
Maximum altitude 05:40:48 63° 291° (WNW) 878 4.1 -7.5°
Drops below altitude 10° 05:45:53 10° 211° (SSW) 2,335 6.3 -6.7°
Sets 05:48:12 0° 208° (SSW) 3,256 7.1 -6.3°
